Time,TemperatureF,DewpointF,PressureIn,WindDirection,WindDirectionDegrees,WindSpeedMPH,WindSpeedGustMPH,Humidity,HourlyPrecipIn,Conditions,Clouds,dailyrainin,SoftwareType,DateUTC
2013-06-12 00:04:00,70.0,64.6,29.85,SSW,198,0.0,4.0,83,0.00,,,0.00,WUHU216DAVISVP2,2013-06-12 04:04:00,
2013-06-12 00:09:00,69.8,64.4,29.85,SSW,198,0.0,1.0,83,0.00,,,0.00,WUHU216DAVISVP2,2013-06-12 04:09:00,
2013-06-12 00:14:00,69.4,64.4,29.84,SSW,198,0.0,1.0,84,0.00,,,0.00,WUHU216DAVISVP2,2013-06-12 04:14:00,
2013-06-12 00:19:00,69.1,64.4,29.84,SSW,198,0.0,1.0,85,0.00,,,0.00,WUHU216DAVISVP2,2013-06-12 04:19:00,
2013-06-12 00:24:00,69.0,64.3,29.84,SSW,198,0.0,1.0,85,0.00,,,0.00,WUHU216DAVISVP2,2013-06-12 04:24:00,
2013-06-12 00:29:00,68.9,64.2,29.84,SSW,198,0.0,1.0,85,0.00,,,0.00,WUHU216DAVISVP2,2013-06-12 04:29:00,
2013-06-12 00:36:00,67.9,63.6,29.85,SSW,198,0.0,0.0,86,0.00,,,0.00,WUHU216DAVISVP2,2013-06-12 04:36:00,
2013-06-12 00:41:00,67.4,63.7,29.84,SSW,198,0.0,0.0,88,0.00,,,0.00,WUHU216DAVISVP2,2013-06-12 04:41:00,
2013-06-12 00:46:00,67.3,63.6,29.84,SSW,198,0.0,0.0,88,0.00,,,0.00,WUHU216DAVISVP2,2013-06-12 04:46:00,
2013-06-12 00:51:00,67.4,64.0,29.84,SSW,198,0.0,0.0,89,0.00,,,0.00,WUHU216DAVISVP2,2013-06-12 04:51:00,
2013-06-12 00:57:00,67.6,64.5,29.84,NNW,329,1.0,4.0,90,0.00,,,0.00,WUHU216DAVISVP2,2013-06-12 04:57:00,
2013-06-12 01:02:00,67.7,64.3,29.84,NNW,329,0.0,4.0,89,0.00,,,0.00,WUHU216DAVISVP2,2013-06-12 05:02:00,
2013-06-12 01:07:00,67.9,64.5,29.84,NNW,329,0.0,4.0,89,0.00,,,0.00,WUHU216DAVISVP2,2013-06-12 05:07:00,
2013-06-12 01:12:00,67.9,64.2,29.84,NNW,329,0.0,4.0,88,0.00,,,0.00,WUHU216DAVISVP2,2013-06-12 05:12:00,
2013-06-12 01:17:00,67.8,64.1,29.84,NNW,329,0.0,2.0,88,0.00,,,0.00,WUHU216DAVISVP2,2013-06-12 05:17:00,
2013-06-12 01:22:00,67.6,64.2,29.84,NNW,329,0.0,0.0,89,0.00,,,0.00,WUHU216DAVISVP2,2013-06-12 05:22:00,
2013-06-12 01:27:00,67.4,64.0,29.84,NNW,329,0.0,0.0,89,0.00,,,0.00,WUHU216DAVISVP2,2013-06-12 05:27:00,
2013-06-12 01:32:00,67.2,64.1,29.83,NNW,329,0.0,0.0,90,0.00,,,0.00,WUHU216DAVISVP2,2013-06-12 05:32:00,
2013-06-12 01:38:00,67.0,63.9,29.83,NNW,329,0.0,0.0,90,0.00,,,0.00,WUHU216DAVISVP2,2013-06-12 05:38:00,
2013-06-12 01:43:00,66.4,63.7,29.83,NNW,329,0.0,0.0,91,0.00,,,0.00,WUHU216DAVISVP2,2013-06-12 05:43:00,
2013-06-12 01:48:00,66.1,63.7,29.84,NNW,329,0.0,0.0,92,0.00,,,0.00,WUHU216DAVISVP2,2013-06-12 05:48:00,
2013-06-12 01:53:00,66.0,63.9,29.83,NNW,329,0.0,0.0,93,0.00,,,0.00,WUHU216DAVISVP2,2013-06-12 05:53:00,
2013-06-12 01:58:00,65.9,63.8,29.83,NNW,329,0.0,0.0,93,0.00,,,0.00,WUHU216DAVISVP2,2013-06-12 05:58:00,
2013-06-12 02:03:00,65.6,63.5,29.83,NNW,329,0.0,0.0,93,0.00,,,0.00,WUHU216DAVISVP2,2013-06-12 06:03:00,
2013-06-12 02:08:00,65.5,63.4,29.83,NNW,329,0.0,0.0,93,0.00,,,0.00,WUHU216DAVISVP2,2013-06-12 06:08:00,
2013-06-12 02:13:00,65.3,63.5,29.82,NNW,329,0.0,0.0,94,0.00,,,0.00,WUHU216DAVISVP2,2013-06-12 06:13:00,
2013-06-12 02:18:00,65.2,63.4,29.82,NNW,329,0.0,0.0,94,0.00,,,0.00,WUHU216DAVISVP2,2013-06-12 06:18:00,
2013-06-12 02:23:00,65.0,63.2,29.82,NNW,329,0.0,0.0,94,0.00,,,0.00,WUHU216DAVISVP2,2013-06-12 06:23:00,
2013-06-12 02:28:00,64.9,63.1,29.82,NNW,329,0.0,0.0,94,0.00,,,0.00,WUHU216DAVISVP2,2013-06-12 06:28:00,
2013-06-12 02:33:00,65.0,63.5,29.83,NNW,329,0.0,0.0,95,0.00,,,0.00,WUHU216DAVISVP2,2013-06-12 06:33:00,
2013-06-12 02:39:00,65.1,63.6,29.83,NNW,329,0.0,1.0,95,0.00,,,0.00,WUHU216DAVISVP2,2013-06-12 06:39:00,
2013-06-12 02:44:00,65.0,63.5,29.83,NNW,329,0.0,1.0,95,0.00,,,0.00,WUHU216DAVISVP2,2013-06-12 06:44:00,
2013-06-12 02:49:00,65.0,63.5,29.83,NNW,329,0.0,1.0,95,0.00,,,0.00,WUHU216DAVISVP2,2013-06-12 06:49:00,
2013-06-12 02:54:00,65.1,63.6,29.83,NNW,329,0.0,0.0,95,0.00,,,0.00,WUHU216DAVISVP2,2013-06-12 06:54:00,
2013-06-12 02:59:00,65.4,63.9,29.83,NNW,329,0.0,0.0,95,0.00,,,0.00,WUHU216DAVISVP2,2013-06-12 06:59:00,
2013-06-12 03:04:00,65.4,63.9,29.82,NNW,329,0.0,0.0,95,0.00,,,0.00,WUHU216DAVISVP2,2013-06-12 07:04:00,
2013-06-12 03:09:00,65.4,63.9,29.83,NNW,329,0.0,0.0,95,0.00,,,0.00,WUHU216DAVISVP2,2013-06-12 07:09:00,
2013-06-12 03:14:00,65.5,64.0,29.82,NNW,329,0.0,0.0,95,0.00,,,0.00,WUHU216DAVISVP2,2013-06-12 07:14:00,
2013-06-12 03:19:00,65.5,64.0,29.82,NNW,329,0.0,0.0,95,0.00,,,0.00,WUHU216DAVISVP2,2013-06-12 07:19:00,
2013-06-12 03:35:00,65.6,64.1,29.82,NNW,329,0.0,0.0,95,0.00,,,0.00,WUHU216DAVISVP2,2013-06-12 07:35:00,
2013-06-12 03:45:00,65.6,64.1,29.83,NNW,329,0.0,0.0,95,0.00,,,0.00,WUHU216DAVISVP2,2013-06-12 07:45:00,
2013-06-12 03:50:00,65.4,63.9,29.83,NNW,329,0.0,0.0,95,0.00,,,0.00,WUHU216DAVISVP2,2013-06-12 07:50:00,
2013-06-12 03:55:00,65.4,63.9,29.83,NNW,329,0.0,0.0,95,0.00,,,0.00,WUHU216DAVISVP2,2013-06-12 07:55:00,
2013-06-12 04:00:00,65.3,63.8,29.83,NNW,329,0.0,0.0,95,0.00,,,0.00,WUHU216DAVISVP2,2013-06-12 08:00:00,
2013-06-12 04:05:00,65.3,63.8,29.83,NNW,329,0.0,0.0,95,0.00,,,0.00,WUHU216DAVISVP2,2013-06-12 08:05:00,
2013-06-12 04:10:00,65.2,63.7,29.83,NNW,329,0.0,0.0,95,0.00,,,0.00,WUHU216DAVISVP2,2013-06-12 08:10:00,
2013-06-12 04:15:00,65.2,63.7,29.83,NNW,329,0.0,0.0,95,0.00,,,0.00,WUHU216DAVISVP2,2013-06-12 08:15:00,
2013-06-12 04:20:00,65.2,63.7,29.84,NNW,329,0.0,0.0,95,0.00,,,0.00,WUHU216DAVISVP2,2013-06-12 08:20:00,
2013-06-12 04:25:00,65.0,63.5,29.84,NNW,329,0.0,0.0,95,0.00,,,0.00,WUHU216DAVISVP2,2013-06-12 08:25:00,
2013-06-12 04:30:00,64.8,63.3,29.84,NNW,329,0.0,0.0,95,0.00,,,0.00,WUHU216DAVISVP2,2013-06-12 08:30:00,
2013-06-12 04:35:00,64.7,63.2,29.85,NNW,329,0.0,0.0,95,0.00,,,0.00,WUHU216DAVISVP2,2013-06-12 08:35:00,
2013-06-12 04:40:00,64.9,63.7,29.85,NNW,329,0.0,2.0,96,0.00,,,0.00,WUHU216DAVISVP2,2013-06-12 08:40:00,
2013-06-12 04:46:00,64.8,63.6,29.85,NNW,329,0.0,2.0,96,0.00,,,0.00,WUHU216DAVISVP2,2013-06-12 08:46:00,
2013-06-12 04:51:00,64.6,63.4,29.86,NNW,329,0.0,2.0,96,0.00,,,0.00,WUHU216DAVISVP2,2013-06-12 08:51:00,
2013-06-12 04:56:00,64.5,63.3,29.86,NNW,329,0.0,2.0,96,0.00,,,0.00,WUHU216DAVISVP2,2013-06-12 08:56:00,
2013-06-12 05:01:00,64.5,63.3,29.86,NNW,329,0.0,0.0,96,0.00,,,0.00,WUHU216DAVISVP2,2013-06-12 09:01:00,
2013-06-12 05:06:00,64.4,63.2,29.86,NNW,329,0.0,0.0,96,0.00,,,0.00,WUHU216DAVISVP2,2013-06-12 09:06:00,
2013-06-12 05:11:00,64.5,63.6,29.86,NNW,329,0.0,0.0,97,0.00,,,0.00,WUHU216DAVISVP2,2013-06-12 09:11:00,
2013-06-12 05:16:00,64.7,63.8,29.86,NNW,329,0.0,0.0,97,0.00,,,0.00,WUHU216DAVISVP2,2013-06-12 09:16:00,
2013-06-12 05:21:00,64.8,63.9,29.86,NNW,329,0.0,0.0,97,0.00,,,0.00,WUHU216DAVISVP2,2013-06-12 09:21:00,
2013-06-12 05:26:00,64.9,64.0,29.86,NNW,329,0.0,0.0,97,0.00,,,0.00,WUHU216DAVISVP2,2013-06-12 09:26:00,
2013-06-12 05:31:00,64.9,64.0,29.86,NNW,329,0.0,0.0,97,0.00,,,0.00,WUHU216DAVISVP2,2013-06-12 09:31:00,
2013-06-12 05:36:00,64.8,63.9,29.86,NNW,329,0.0,0.0,97,0.00,,,0.00,WUHU216DAVISVP2,2013-06-12 09:36:00,
2013-06-12 05:41:00,64.8,63.9,29.86,NNW,329,0.0,0.0,97,0.00,,,0.00,WUHU216DAVISVP2,2013-06-12 09:41:00,
2013-06-12 05:46:00,64.8,63.9,29.86,NNW,329,0.0,0.0,97,0.00,,,0.00,WUHU216DAVISVP2,2013-06-12 09:46:00,
2013-06-12 05:52:00,64.7,63.8,29.86,NNW,329,0.0,0.0,97,0.00,,,0.00,WUHU216DAVISVP2,2013-06-12 09:52:00,
2013-06-12 05:57:00,64.5,63.3,29.85,NNW,329,0.0,1.0,96,0.00,,,0.00,WUHU216DAVISVP2,2013-06-12 09:57:00,
2013-06-12 06:02:00,64.3,63.4,29.85,NNW,329,0.0,1.0,97,0.00,,,0.00,WUHU216DAVISVP2,2013-06-12 10:02:00,
2013-06-12 06:07:00,64.3,63.4,29.85,NNW,329,0.0,1.0,97,0.00,,,0.00,WUHU216DAVISVP2,2013-06-12 10:07:00,
2013-06-12 06:12:00,64.4,63.5,29.85,NNW,329,0.0,1.0,97,0.00,,,0.00,WUHU216DAVISVP2,2013-06-12 10:12:00,
2013-06-12 06:17:00,64.4,63.5,29.85,NNW,329,0.0,1.0,97,0.00,,,0.00,WUHU216DAVISVP2,2013-06-12 10:17:00,
2013-06-12 06:22:00,64.3,63.4,29.85,NNW,329,0.0,0.0,97,0.00,,,0.00,WUHU216DAVISVP2,2013-06-12 10:22:00,
2013-06-12 06:29:00,64.3,63.4,29.85,NNW,329,0.0,1.0,97,0.00,,,0.00,WUHU216DAVISVP2,2013-06-12 10:29:00,
2013-06-12 06:33:00,64.3,63.4,29.84,NNW,345,0.0,2.0,97,0.00,,,0.00,WUHU216DAVISVP2,2013-06-12 10:33:00,
2013-06-12 06:56:00,65.0,64.4,29.85,SSE,154,1.0,4.0,98,0.00,,,0.00,WUHU216DAVISVP2,2013-06-12 10:56:00,
2013-06-12 07:17:00,65.8,64.9,29.85,NW,304,2.0,6.0,97,0.00,,,0.00,WUHU216DAVISVP2,2013-06-12 11:17:00,
2013-06-12 07:24:00,66.1,65.2,29.85,North,5,0.0,5.0,97,0.00,,,0.00,WUHU216DAVISVP2,2013-06-12 11:24:00,
2013-06-12 07:39:00,66.7,65.5,29.85,North,5,0.0,1.0,96,0.00,,,0.00,WUHU216DAVISVP2,2013-06-12 11:39:00,
2013-06-12 07:44:00,66.9,65.7,29.84,North,5,1.0,4.0,96,0.00,,,0.00,WUHU216DAVISVP2,2013-06-12 11:44:00,
2013-06-12 07:49:00,67.1,65.9,29.86,North,5,0.0,4.0,96,0.00,,,0.00,WUHU216DAVISVP2,2013-06-12 11:49:00,
2013-06-12 07:54:00,67.4,65.9,29.85,North,5,0.0,4.0,95,0.00,,,0.00,WUHU216DAVISVP2,2013-06-12 11:54:00,
2013-06-12 07:59:00,67.6,66.1,29.85,North,5,0.0,4.0,95,0.00,,,0.00,WUHU216DAVISVP2,2013-06-12 11:59:00,
2013-06-12 08:04:00,67.8,66.3,29.85,North,5,0.0,0.0,95,0.00,,,0.00,WUHU216DAVISVP2,2013-06-12 12:04:00,
2013-06-12 08:10:00,67.9,66.4,29.85,North,5,0.0,0.0,95,0.00,,,0.00,WUHU216DAVISVP2,2013-06-12 12:10:00,
2013-06-12 08:15:00,67.9,66.1,29.86,North,5,1.0,2.0,94,0.00,,,0.00,WUHU216DAVISVP2,2013-06-12 12:15:00,
2013-06-12 08:20:00,67.9,66.1,29.86,SSW,211,0.0,4.0,94,0.00,,,0.00,WUHU216DAVISVP2,2013-06-12 12:20:00,
2013-06-12 08:25:00,68.0,66.2,29.86,SSW,211,0.0,4.0,94,0.00,,,0.00,WUHU216DAVISVP2,2013-06-12 12:25:00,
2013-06-12 08:30:00,68.0,66.2,29.86,SSW,211,0.0,4.0,94,0.00,,,0.00,WUHU216DAVISVP2,2013-06-12 12:30:00,
2013-06-12 08:35:00,68.2,66.4,29.86,SSW,211,1.0,4.0,94,0.00,,,0.00,WUHU216DAVISVP2,2013-06-12 12:35:00,
2013-06-12 08:40:00,68.4,66.3,29.86,NNW,340,0.0,5.0,93,0.00,,,0.00,WUHU216DAVISVP2,2013-06-12 12:40:00,
2013-06-12 08:45:00,68.6,66.5,29.86,NNW,340,0.0,5.0,93,0.00,,,0.00,WUHU216DAVISVP2,2013-06-12 12:45:00,
2013-06-12 08:50:00,69.0,66.9,29.86,NNW,340,0.0,5.0,93,0.00,,,0.00,WUHU216DAVISVP2,2013-06-12 12:50:00,
2013-06-12 08:55:00,69.5,67.1,29.86,NNW,340,0.0,5.0,92,0.00,,,0.00,WUHU216DAVISVP2,2013-06-12 12:55:00,
2013-06-12 09:00:00,70.2,67.1,29.86,NNW,340,0.0,2.0,90,0.00,,,0.00,WUHU216DAVISVP2,2013-06-12 13:00:00,
2013-06-12 09:05:00,70.8,67.1,29.86,NNE,13,0.0,4.0,88,0.00,,,0.00,WUHU216DAVISVP2,2013-06-12 13:05:00,
2013-06-12 09:11:00,71.3,67.2,29.86,NNE,13,0.0,4.0,87,0.00,,,0.00,WUHU216DAVISVP2,2013-06-12 13:11:00,
2013-06-12 09:16:00,71.6,67.2,29.86,NNE,13,2.0,4.0,86,0.00,,,0.00,WUHU216DAVISVP2,2013-06-12 13:16:00,
2013-06-12 09:21:00,71.7,67.0,29.86,East,89,0.0,4.0,85,0.00,,,0.00,WUHU216DAVISVP2,2013-06-12 13:21:00,
2013-06-12 09:26:00,71.8,67.1,29.86,East,89,1.0,4.0,85,0.00,,,0.00,WUHU216DAVISVP2,2013-06-12 13:26:00,
2013-06-12 09:31:00,71.9,66.5,29.86,ENE,74,1.0,4.0,83,0.00,,,0.00,WUHU216DAVISVP2,2013-06-12 13:31:00,
2013-06-12 09:36:00,71.9,66.8,29.86,ENE,78,0.0,5.0,84,0.00,,,0.00,WUHU216DAVISVP2,2013-06-12 13:36:00,
2013-06-12 09:41:00,72.0,66.9,29.86,ESE,103,0.0,5.0,84,0.00,,,0.00,WUHU216DAVISVP2,2013-06-12 13:41:00,
2013-06-12 09:46:00,72.1,67.0,29.86,ESE,103,0.0,5.0,84,0.00,,,0.00,WUHU216DAVISVP2,2013-06-12 13:46:00,
2013-06-12 09:51:00,72.1,66.7,29.87,NNE,33,4.0,4.0,83,0.00,,,0.00,WUHU216DAVISVP2,2013-06-12 13:51:00,
2013-06-12 09:57:00,72.1,66.4,29.87,NE,34,0.0,4.0,82,0.00,,,0.00,WUHU216DAVISVP2,2013-06-12 13:57:00,
2013-06-12 10:02:00,72.2,66.5,29.87,ENE,76,0.0,4.0,82,0.00,,,0.00,WUHU216DAVISVP2,2013-06-12 14:02:00,
2013-06-12 10:07:00,72.2,66.4,29.87,ENE,67,4.0,4.0,82,0.00,,,0.00,WUHU216DAVISVP2,2013-06-12 14:07:00,
2013-06-12 10:12:00,72.3,66.5,29.87,NE,55,1.0,5.0,82,0.00,,,0.00,WUHU216DAVISVP2,2013-06-12 14:12:00,
2013-06-12 10:17:00,72.4,66.6,29.86,ESE,116,5.0,5.0,82,0.00,,,0.00,WUHU216DAVISVP2,2013-06-12 14:17:00,
2013-06-12 10:22:00,72.5,66.7,29.86,East,82,3.0,5.0,82,0.00,,,0.00,WUHU216DAVISVP2,2013-06-12 14:22:00,
2013-06-12 10:27:00,72.7,67.3,29.86,East,83,4.0,5.0,83,0.00,,,0.00,WUHU216DAVISVP2,2013-06-12 14:27:00,
2013-06-12 10:32:00,72.8,67.1,29.87,ENE,60,0.0,6.0,82,0.00,,,0.00,WUHU216DAVISVP2,2013-06-12 14:32:00,
2013-06-12 10:37:00,72.9,67.1,29.86,East,86,2.0,6.0,82,0.00,,,0.00,WUHU216DAVISVP2,2013-06-12 14:37:00,
2013-06-12 10:42:00,72.9,67.1,29.86,East,88,0.0,6.0,82,0.00,,,0.00,WUHU216DAVISVP2,2013-06-12 14:42:00,
2013-06-12 10:47:00,73.0,67.6,29.86,East,88,0.0,5.0,83,0.00,,,0.00,WUHU216DAVISVP2,2013-06-12 14:47:00,
2013-06-12 10:53:00,72.9,66.8,29.87,East,88,2.0,5.0,81,0.00,,,0.00,WUHU216DAVISVP2,2013-06-12 14:53:00,
2013-06-12 10:58:00,72.9,67.1,29.86,East,90,5.0,6.0,82,0.00,,,0.00,WUHU216DAVISVP2,2013-06-12 14:58:00,
2013-06-12 11:03:00,72.9,67.1,29.86,East,99,0.0,6.0,82,0.00,,,0.00,WUHU216DAVISVP2,2013-06-12 15:03:00,
2013-06-12 11:08:00,73.0,67.6,29.87,East,99,0.0,6.0,83,0.00,,,0.00,WUHU216DAVISVP2,2013-06-12 15:08:00,
2013-06-12 11:13:00,73.1,67.3,29.87,East,99,3.0,6.0,82,0.00,,,0.00,WUHU216DAVISVP2,2013-06-12 15:13:00,
2013-06-12 11:18:00,73.0,67.6,29.86,ENE,76,2.0,5.0,83,0.00,,,0.00,WUHU216DAVISVP2,2013-06-12 15:18:00,
2013-06-12 11:23:00,72.9,67.5,29.87,ESE,103,0.0,5.0,83,0.00,,,0.00,WUHU216DAVISVP2,2013-06-12 15:23:00,
2013-06-12 11:28:00,73.1,68.0,29.87,ESE,103,1.0,5.0,84,0.00,,,0.00,WUHU216DAVISVP2,2013-06-12 15:28:00,
2013-06-12 11:33:00,73.3,67.9,29.86,NE,55,2.0,6.0,83,0.00,,,0.00,WUHU216DAVISVP2,2013-06-12 15:33:00,
2013-06-12 11:38:00,73.8,68.4,29.85,SE,129,1.0,7.0,83,0.00,,,0.00,WUHU216DAVISVP2,2013-06-12 15:38:00,
2013-06-12 11:43:00,74.6,68.1,29.85,ENE,78,4.0,9.0,80,0.00,,,0.00,WUHU216DAVISVP2,2013-06-12 15:43:00,
2013-06-12 11:48:00,75.2,68.3,29.86,East,91,0.0,9.0,79,0.00,,,0.00,WUHU216DAVISVP2,2013-06-12 15:48:00,
2013-06-12 11:53:00,75.6,68.7,29.87,NE,52,2.0,9.0,79,0.00,,,0.00,WUHU216DAVISVP2,2013-06-12 15:53:00,
2013-06-12 11:59:00,75.8,68.6,29.87,NNE,25,1.0,9.0,78,0.00,,,0.00,WUHU216DAVISVP2,2013-06-12 15:59:00,
2013-06-12 12:04:00,76.4,68.8,29.88,East,101,0.0,7.0,77,0.00,,,0.00,WUHU216DAVISVP2,2013-06-12 16:04:00,
2013-06-12 12:09:00,77.1,69.1,29.88,NE,37,3.0,7.0,76,0.00,,,0.00,WUHU216DAVISVP2,2013-06-12 16:09:00,
2013-06-12 12:14:00,77.4,69.4,29.88,East,82,4.0,8.0,76,0.00,,,0.00,WUHU216DAVISVP2,2013-06-12 16:14:00,
2013-06-12 12:19:00,77.2,68.8,29.87,NNW,346,4.0,8.0,75,0.00,,,0.00,WUHU216DAVISVP2,2013-06-12 16:19:00,
2013-06-12 12:24:00,77.0,68.6,29.87,ESE,123,2.0,8.0,75,0.00,,,0.00,WUHU216DAVISVP2,2013-06-12 16:24:00,
2013-06-12 12:29:00,77.1,69.1,29.87,East,84,0.0,8.0,76,0.00,,,0.00,WUHU216DAVISVP2,2013-06-12 16:29:00,
2013-06-12 12:34:00,77.7,69.7,29.86,ESE,109,1.0,7.0,76,0.00,,,0.00,WUHU216DAVISVP2,2013-06-12 16:34:00,
2013-06-12 12:39:00,78.4,70.6,29.84,East,93,4.0,9.0,77,0.00,,,0.00,WUHU216DAVISVP2,2013-06-12 16:39:00,
2013-06-12 12:44:00,78.9,69.7,29.84,East,91,0.0,9.0,73,0.00,,,0.00,WUHU216DAVISVP2,2013-06-12 16:44:00,
2013-06-12 12:49:00,79.1,70.3,29.83,East,96,6.0,10.0,74,0.00,,,0.00,WUHU216DAVISVP2,2013-06-12 16:49:00,
2013-06-12 12:54:00,78.6,69.8,29.82,ESE,115,7.0,10.0,74,0.00,,,0.00,WUHU216DAVISVP2,2013-06-12 16:54:00,
2013-06-12 12:59:00,78.5,70.3,29.81,ESE,121,8.0,10.0,76,0.00,,,0.00,WUHU216DAVISVP2,2013-06-12 16:59:00,
2013-06-12 13:04:00,78.4,70.0,29.80,East,79,8.0,12.0,75,0.00,,,0.00,WUHU216DAVISVP2,2013-06-12 17:04:00,
2013-06-12 13:09:00,78.3,69.9,29.80,East,96,8.0,13.0,75,0.00,,,0.00,WUHU216DAVISVP2,2013-06-12 17:09:00,
2013-06-12 13:15:00,78.4,70.0,29.80,ESE,105,4.0,13.0,75,0.00,,,0.00,WUHU216DAVISVP2,2013-06-12 17:15:00,
2013-06-12 13:20:00,78.5,69.5,29.80,ESE,109,5.0,13.0,74,0.00,,,0.00,WUHU216DAVISVP2,2013-06-12 17:20:00,
2013-06-12 13:25:00,78.7,70.1,29.79,ESE,103,2.0,12.0,75,0.00,,,0.00,WUHU216DAVISVP2,2013-06-12 17:25:00,
2013-06-12 13:30:00,79.1,71.0,29.79,South,174,8.0,11.0,76,0.00,,,0.00,WUHU216DAVISVP2,2013-06-12 17:30:00,
2013-06-12 13:35:00,79.3,70.9,29.80,South,175,6.0,12.0,75,0.00,,,0.00,WUHU216DAVISVP2,2013-06-12 17:35:00,
2013-06-12 13:40:00,79.5,70.7,29.80,SE,136,7.0,12.0,74,0.00,,,0.00,WUHU216DAVISVP2,2013-06-12 17:40:00,
2013-06-12 13:45:00,79.7,70.9,29.80,ESE,106,7.0,12.0,74,0.00,,,0.00,WUHU216DAVISVP2,2013-06-12 17:45:00,
2013-06-12 13:50:00,79.6,70.0,29.80,SSE,159,4.0,12.0,72,0.00,,,0.00,WUHU216DAVISVP2,2013-06-12 17:50:00,
2013-06-12 13:55:00,79.6,71.2,29.80,ESE,120,7.0,10.0,75,0.00,,,0.00,WUHU216DAVISVP2,2013-06-12 17:55:00,
2013-06-12 14:00:00,79.7,70.7,29.79,ESE,120,0.0,10.0,74,0.00,,,0.00,WUHU216DAVISVP2,2013-06-12 18:00:00,
2013-06-12 14:05:00,80.0,71.4,29.76,ENE,61,8.0,10.0,75,0.00,,,0.00,WUHU216DAVISVP2,2013-06-12 18:05:00,
2013-06-12 14:10:00,80.1,71.6,29.76,East,90,5.0,10.0,75,0.00,,,0.00,WUHU216DAVISVP2,2013-06-12 18:10:00,
2013-06-12 14:15:00,80.5,71.6,29.78,ESE,123,0.0,10.0,74,0.00,,,0.00,WUHU216DAVISVP2,2013-06-12 18:15:00,
2013-06-12 14:20:00,81.0,71.7,29.78,SSE,148,7.0,10.0,73,0.00,,,0.00,WUHU216DAVISVP2,2013-06-12 18:20:00,
2013-06-12 14:26:00,81.5,71.6,29.80,South,186,3.0,10.0,72,0.00,,,0.00,WUHU216DAVISVP2,2013-06-12 18:26:00,
2013-06-12 14:31:00,81.9,71.6,29.79,SE,125,1.0,10.0,71,0.00,,,0.00,WUHU216DAVISVP2,2013-06-12 18:31:00,
2013-06-12 14:36:00,81.9,72.2,29.79,SE,142,7.0,10.0,72,0.00,,,0.00,WUHU216DAVISVP2,2013-06-12 18:36:00,
2013-06-12 14:41:00,81.9,71.8,29.78,South,183,5.0,10.0,71,0.00,,,0.00,WUHU216DAVISVP2,2013-06-12 18:41:00,
2013-06-12 14:46:00,81.7,72.0,29.77,SE,127,2.0,9.0,72,0.00,,,0.00,WUHU216DAVISVP2,2013-06-12 18:46:00,
2013-06-12 14:51:00,81.3,72.0,29.74,East,90,6.0,10.0,73,0.00,,,0.00,WUHU216DAVISVP2,2013-06-12 18:51:00,
2013-06-12 14:56:00,81.1,71.8,29.75,SE,140,4.0,10.0,73,0.00,,,0.00,WUHU216DAVISVP2,2013-06-12 18:56:00,
2013-06-12 15:01:00,81.4,72.1,29.76,ESE,103,0.0,10.0,73,0.00,,,0.00,WUHU216DAVISVP2,2013-06-12 19:01:00,
2013-06-12 15:06:00,82.0,73.1,29.75,ENE,78,1.0,10.0,74,0.00,,,0.00,WUHU216DAVISVP2,2013-06-12 19:06:00,
2013-06-12 15:11:00,82.4,72.7,29.75,East,95,1.0,7.0,72,0.00,,,0.00,WUHU216DAVISVP2,2013-06-12 19:11:00,
2013-06-12 15:16:00,82.4,72.0,29.75,East,91,2.0,8.0,71,0.00,,,0.00,WUHU216DAVISVP2,2013-06-12 19:16:00,
2013-06-12 15:21:00,82.5,73.0,29.76,ESE,105,4.0,8.0,73,0.00,,,0.00,WUHU216DAVISVP2,2013-06-12 19:21:00,
2013-06-12 15:26:00,82.2,72.5,29.74,East,79,5.0,8.0,72,0.00,,,0.00,WUHU216DAVISVP2,2013-06-12 19:26:00,
2013-06-12 15:32:00,81.8,72.1,29.75,East,100,2.0,10.0,72,0.00,,,0.00,WUHU216DAVISVP2,2013-06-12 19:32:00,
2013-06-12 15:37:00,81.6,72.7,29.77,South,184,5.0,10.0,74,0.00,,,0.00,WUHU216DAVISVP2,2013-06-12 19:37:00,
2013-06-12 15:42:00,81.3,72.4,29.71,East,90,8.0,11.0,74,0.00,,,0.00,WUHU216DAVISVP2,2013-06-12 19:42:00,
2013-06-12 15:47:00,80.8,72.5,29.70,ENE,69,2.0,11.0,76,0.00,,,0.00,WUHU216DAVISVP2,2013-06-12 19:47:00,
2013-06-12 15:52:00,81.0,72.3,29.73,SE,132,0.0,11.0,75,0.00,,,0.00,WUHU216DAVISVP2,2013-06-12 19:52:00,
2013-06-12 15:57:00,81.6,73.3,29.73,East,87,5.0,11.0,76,0.00,,,0.00,WUHU216DAVISVP2,2013-06-12 19:57:00,
2013-06-12 16:02:00,82.0,73.1,29.75,East,88,0.0,9.0,74,0.00,,,0.00,WUHU216DAVISVP2,2013-06-12 20:02:00,
2013-06-12 16:07:00,82.4,73.5,29.76,SE,146,4.0,7.0,74,0.00,,,0.00,WUHU216DAVISVP2,2013-06-12 20:07:00,
2013-06-12 16:12:00,82.1,73.6,29.70,East,85,6.0,9.0,75,0.00,,,0.00,WUHU216DAVISVP2,2013-06-12 20:12:00,
2013-06-12 16:17:00,81.7,73.2,29.72,ESE,105,6.0,11.0,75,0.00,,,0.00,WUHU216DAVISVP2,2013-06-12 20:17:00,
2013-06-12 16:22:00,81.8,73.7,29.72,East,91,4.0,11.0,76,0.00,,,0.00,WUHU216DAVISVP2,2013-06-12 20:22:00,
2013-06-12 16:27:00,81.9,73.8,29.72,ESE,115,5.0,11.0,76,0.00,,,0.00,WUHU216DAVISVP2,2013-06-12 20:27:00,
2013-06-12 16:32:00,82.1,73.2,29.73,East,97,1.0,11.0,74,0.00,,,0.00,WUHU216DAVISVP2,2013-06-12 20:32:00,
2013-06-12 16:38:00,82.3,74.2,29.74,ESE,119,1.0,10.0,76,0.00,,,0.00,WUHU216DAVISVP2,2013-06-12 20:38:00,
2013-06-12 16:43:00,82.6,73.7,29.75,SSE,151,1.0,9.0,74,0.00,,,0.00,WUHU216DAVISVP2,2013-06-12 20:43:00,
2013-06-12 16:48:00,82.7,73.8,29.75,ESE,119,1.0,7.0,74,0.00,,,0.00,WUHU216DAVISVP2,2013-06-12 20:48:00,
2013-06-12 16:53:00,82.9,73.6,29.76,ESE,119,0.0,6.0,73,0.00,,,0.00,WUHU216DAVISVP2,2013-06-12 20:53:00,
2013-06-12 16:58:00,83.2,74.8,29.75,ESE,119,0.0,4.0,76,0.00,,,0.00,WUHU216DAVISVP2,2013-06-12 20:58:00,
2013-06-12 17:03:00,83.4,74.6,29.76,ESE,119,0.0,1.0,75,0.00,,,0.00,WUHU216DAVISVP2,2013-06-12 21:03:00,
2013-06-12 17:08:00,83.4,74.2,29.76,WNW,292,5.0,5.0,74,0.00,,,0.00,WUHU216DAVISVP2,2013-06-12 21:08:00,
2013-06-12 17:13:00,83.2,73.6,29.76,WNW,292,0.0,5.0,73,0.00,,,0.00,WUHU216DAVISVP2,2013-06-12 21:13:00,
2013-06-12 17:18:00,83.3,74.3,29.76,WNW,292,2.0,5.0,74,0.00,,,0.00,WUHU216DAVISVP2,2013-06-12 21:18:00,
2013-06-12 17:23:00,83.2,74.6,29.76,WNW,292,2.0,5.0,75,0.00,,,0.00,WUHU216DAVISVP2,2013-06-12 21:23:00,
2013-06-12 17:28:00,83.2,74.3,29.75,West,259,3.0,6.0,74,0.00,,,0.00,WUHU216DAVISVP2,2013-06-12 21:28:00,
2013-06-12 17:33:00,83.4,74.0,29.75,West,259,4.0,6.0,73,0.00,,,0.00,WUHU216DAVISVP2,2013-06-12 21:33:00,
2013-06-12 17:38:00,83.6,73.8,29.74,West,259,1.0,6.0,72,0.00,,,0.00,WUHU216DAVISVP2,2013-06-12 21:38:00,
2013-06-12 17:44:00,83.9,74.5,29.74,West,259,1.0,6.0,73,0.00,,,0.00,WUHU216DAVISVP2,2013-06-12 21:44:00,
2013-06-12 17:49:00,84.1,74.7,29.73,WNW,292,0.0,6.0,73,0.00,,,0.00,WUHU216DAVISVP2,2013-06-12 21:49:00,
2013-06-12 17:54:00,84.3,74.7,29.73,WNW,292,0.0,6.0,73,0.00,,,0.00,WUHU216DAVISVP2,2013-06-12 21:54:00,
2013-06-12 17:59:00,85.0,74.1,29.73,WNW,282,0.0,6.0,70,0.00,,,0.00,WUHU216DAVISVP2,2013-06-12 21:59:00,
2013-06-12 18:04:00,85.1,74.5,29.73,WNW,282,0.0,6.0,70,0.00,,,0.00,WUHU216DAVISVP2,2013-06-12 22:04:00,
2013-06-12 18:09:00,85.2,74.1,29.72,WNW,282,0.0,5.0,69,0.00,,,0.00,WUHU216DAVISVP2,2013-06-12 22:09:00,
2013-06-12 18:14:00,85.8,74.7,29.72,WNW,282,0.0,5.0,69,0.00,,,0.00,WUHU216DAVISVP2,2013-06-12 22:14:00,
2013-06-12 18:19:00,86.1,75.4,29.71,WNW,282,0.0,2.0,70,0.00,,,0.00,WUHU216DAVISVP2,2013-06-12 22:19:00,
2013-06-12 18:24:00,86.2,75.1,29.71,WNW,282,1.0,2.0,69,0.00,,,0.00,WUHU216DAVISVP2,2013-06-12 22:24:00,
2013-06-12 18:29:00,86.3,74.8,29.70,WNW,282,0.0,2.0,68,0.00,,,0.00,WUHU216DAVISVP2,2013-06-12 22:29:00,
2013-06-12 18:34:00,86.4,75.7,29.70,WNW,282,0.0,2.0,70,0.00,,,0.00,WUHU216DAVISVP2,2013-06-12 22:34:00,
2013-06-12 18:40:00,86.2,74.7,29.70,WNW,282,0.0,2.0,68,0.00,,,0.00,WUHU216DAVISVP2,2013-06-12 22:40:00,
2013-06-12 18:45:00,85.9,76.5,29.70,WNW,282,0.0,1.0,73,0.00,,,0.00,WUHU216DAVISVP2,2013-06-12 22:45:00,
2013-06-12 18:50:00,85.5,76.1,29.69,WNW,282,1.0,4.0,73,0.00,,,0.00,WUHU216DAVISVP2,2013-06-12 22:50:00,
2013-06-12 18:55:00,85.6,75.1,29.69,WNW,282,0.0,4.0,71,0.00,,,0.00,WUHU216DAVISVP2,2013-06-12 22:55:00,
2013-06-12 19:00:00,86.2,74.0,29.69,WNW,282,0.0,4.0,67,0.00,,,0.00,WUHU216DAVISVP2,2013-06-12 23:00:00,
2013-06-12 19:05:00,86.2,75.3,29.69,WNW,282,4.0,4.0,70,0.00,,,0.00,WUHU216DAVISVP2,2013-06-12 23:05:00,
2013-06-12 19:11:00,85.6,74.5,29.68,South,180,0.0,6.0,69,0.00,,,0.00,WUHU216DAVISVP2,2013-06-12 23:11:00,
2013-06-12 19:16:00,85.1,74.9,29.69,South,180,1.0,6.0,71,0.00,,,0.00,WUHU216DAVISVP2,2013-06-12 23:16:00,
2013-06-12 19:21:00,84.8,75.0,29.69,South,180,0.0,6.0,72,0.00,,,0.00,WUHU216DAVISVP2,2013-06-12 23:21:00,
2013-06-12 19:26:00,84.4,75.0,29.69,South,180,0.0,2.0,73,0.00,,,0.00,WUHU216DAVISVP2,2013-06-12 23:26:00,
2013-06-12 19:32:00,84.2,75.6,29.69,South,180,0.0,2.0,75,0.00,,,0.00,WUHU216DAVISVP2,2013-06-12 23:32:00,
2013-06-12 19:37:00,83.7,75.5,29.69,South,180,0.0,1.0,76,0.00,,,0.00,WUHU216DAVISVP2,2013-06-12 23:37:00,
2013-06-12 19:42:00,82.8,74.6,29.68,South,180,0.0,1.0,76,0.00,,,0.00,WUHU216DAVISVP2,2013-06-12 23:42:00,
2013-06-12 19:47:00,82.3,74.5,29.67,SE,144,0.0,1.0,77,0.00,,,0.00,WUHU216DAVISVP2,2013-06-12 23:47:00,
2013-06-12 19:52:00,81.6,74.2,29.67,NE,41,2.0,4.0,78,0.00,,,0.00,WUHU216DAVISVP2,2013-06-12 23:52:00,
2013-06-12 19:57:00,81.4,74.0,29.68,North,5,2.0,4.0,78,0.00,,,0.00,WUHU216DAVISVP2,2013-06-12 23:57:00,
2013-06-12 20:03:00,81.6,73.8,29.68,NNW,339,2.0,6.0,77,0.00,,,0.00,WUHU216DAVISVP2,2013-06-13 00:03:00,
2013-06-12 20:08:00,81.4,74.0,29.68,NNW,344,1.0,7.0,78,0.00,,,0.00,WUHU216DAVISVP2,2013-06-13 00:08:00,
2013-06-12 20:13:00,81.0,74.0,29.66,NNE,14,0.0,7.0,79,0.00,,,0.00,WUHU216DAVISVP2,2013-06-13 00:13:00,
2013-06-12 20:18:00,80.7,73.7,29.68,West,277,1.0,7.0,79,0.01,,,0.01,WUHU216DAVISVP2,2013-06-13 00:18:00,
2013-06-12 20:23:00,80.1,73.8,29.68,North,355,1.0,7.0,81,0.01,,,0.01,WUHU216DAVISVP2,2013-06-13 00:23:00,
2013-06-12 20:28:00,79.6,73.7,29.68,North,11,5.0,5.0,82,0.02,,,0.02,WUHU216DAVISVP2,2013-06-13 00:28:00,
2013-06-12 20:33:00,78.8,73.6,29.68,NE,36,2.0,6.0,84,0.03,,,0.03,WUHU216DAVISVP2,2013-06-13 00:33:00,
2013-06-12 20:38:00,78.2,73.7,29.67,NE,35,1.0,6.0,86,0.03,,,0.03,WUHU216DAVISVP2,2013-06-13 00:38:00,
2013-06-12 20:43:00,77.3,73.5,29.67,NW,313,12.0,13.0,88,0.03,,,0.03,WUHU216DAVISVP2,2013-06-13 00:43:00,
2013-06-12 20:48:00,75.5,70.4,29.69,WNW,293,10.0,22.0,84,0.04,,,0.04,WUHU216DAVISVP2,2013-06-13 00:48:00,
2013-06-12 20:54:00,73.7,68.9,29.68,NW,311,5.0,22.0,85,0.11,,,0.11,WUHU216DAVISVP2,2013-06-13 00:54:00,
2013-06-12 20:59:00,73.3,68.9,29.67,NE,56,1.0,22.0,86,0.11,,,0.11,WUHU216DAVISVP2,2013-06-13 00:59:00,
2013-06-12 21:04:00,73.4,69.6,29.66,NNE,32,5.0,22.0,88,0.11,,,0.11,WUHU216DAVISVP2,2013-06-13 01:04:00,
2013-06-12 21:09:00,73.2,69.4,29.65,NNE,24,7.0,15.0,88,0.11,,,0.11,WUHU216DAVISVP2,2013-06-13 01:09:00,
2013-06-12 21:14:00,73.1,69.3,29.65,NE,51,7.0,11.0,88,0.11,,,0.11,WUHU216DAVISVP2,2013-06-13 01:14:00,
2013-06-12 21:20:00,73.3,69.9,29.66,NE,40,0.0,11.0,89,0.10,,,0.11,WUHU216DAVISVP2,2013-06-13 01:20:00,
2013-06-12 21:25:00,73.2,70.1,29.65,NNE,33,6.0,11.0,90,0.10,,,0.11,WUHU216DAVISVP2,2013-06-13 01:25:00,
2013-06-12 21:30:00,73.0,70.2,29.65,NE,53,2.0,11.0,91,0.08,,,0.11,WUHU216DAVISVP2,2013-06-13 01:30:00,
2013-06-12 21:35:00,72.9,70.4,29.63,NNE,24,4.0,8.0,92,0.08,,,0.11,WUHU216DAVISVP2,2013-06-13 01:35:00,
2013-06-12 21:40:00,72.9,70.8,29.60,NW,321,7.0,9.0,93,0.08,,,0.11,WUHU216DAVISVP2,2013-06-13 01:40:00,
2013-06-12 21:45:00,73.1,71.2,29.62,South,180,2.0,9.0,94,0.08,,,0.11,WUHU216DAVISVP2,2013-06-13 01:45:00,
2013-06-12 21:50:00,73.3,71.4,29.65,SSE,161,0.0,9.0,94,0.06,,,0.11,WUHU216DAVISVP2,2013-06-13 01:50:00,
2013-06-12 21:55:00,73.2,71.3,29.64,ENE,65,0.0,9.0,94,0.00,,,0.11,WUHU216DAVISVP2,2013-06-13 01:55:00,
2013-06-12 22:00:00,73.2,71.7,29.63,ENE,76,6.0,9.0,95,0.00,,,0.11,WUHU216DAVISVP2,2013-06-13 02:00:00,
2013-06-12 22:05:00,73.2,71.7,29.62,ENE,72,6.0,9.0,95,0.01,,,0.12,WUHU216DAVISVP2,2013-06-13 02:05:00,
2013-06-12 22:10:00,73.2,71.7,29.61,NNE,24,1.0,8.0,95,0.01,,,0.12,WUHU216DAVISVP2,2013-06-13 02:10:00,
2013-06-12 22:15:00,73.1,71.9,29.60,ENE,71,0.0,8.0,96,0.02,,,0.13,WUHU216DAVISVP2,2013-06-13 02:15:00,
2013-06-12 22:20:00,73.0,71.8,29.62,SW,230,2.0,8.0,96,0.02,,,0.13,WUHU216DAVISVP2,2013-06-13 02:20:00,
2013-06-12 22:26:00,73.0,71.8,29.62,SE,140,0.0,6.0,96,0.02,,,0.13,WUHU216DAVISVP2,2013-06-13 02:26:00,
2013-06-12 22:31:00,72.8,71.3,29.62,NE,51,4.0,6.0,95,0.03,,,0.14,WUHU216DAVISVP2,2013-06-13 02:31:00,
2013-06-12 22:36:00,72.6,71.1,29.61,NE,48,1.0,7.0,95,0.03,,,0.14,WUHU216DAVISVP2,2013-06-13 02:36:00,
2013-06-12 22:41:00,72.4,71.2,29.63,East,79,1.0,7.0,96,0.03,,,0.14,WUHU216DAVISVP2,2013-06-13 02:41:00,
2013-06-12 22:46:00,72.2,71.0,29.62,East,80,1.0,8.0,96,0.04,,,0.15,WUHU216DAVISVP2,2013-06-13 02:46:00,
2013-06-12 22:51:00,72.0,70.5,29.61,East,88,2.0,8.0,95,0.04,,,0.15,WUHU216DAVISVP2,2013-06-13 02:51:00,
2013-06-12 22:56:00,71.8,70.3,29.59,NNW,344,2.0,8.0,95,0.05,,,0.16,WUHU216DAVISVP2,2013-06-13 02:56:00,
2013-06-12 23:01:00,71.8,70.6,29.60,NNW,337,1.0,8.0,96,0.06,,,0.17,WUHU216DAVISVP2,2013-06-13 03:01:00,
2013-06-12 23:06:00,71.5,70.3,29.62,ENE,77,2.0,8.0,96,0.05,,,0.17,WUHU216DAVISVP2,2013-06-13 03:06:00,
2013-06-12 23:12:00,71.1,69.6,29.60,ENE,61,1.0,8.0,95,0.04,,,0.17,WUHU216DAVISVP2,2013-06-13 03:12:00,
2013-06-12 23:17:00,70.7,69.2,29.60,East,91,8.0,8.0,95,0.06,,,0.19,WUHU216DAVISVP2,2013-06-13 03:17:00,
2013-06-12 23:22:00,70.5,69.0,29.63,SSW,200,6.0,8.0,95,0.07,,,0.20,WUHU216DAVISVP2,2013-06-13 03:22:00,
2013-06-12 23:26:00,70.4,69.2,29.66,SW,236,24.0,27.0,96,0.09,,,0.22,WUHU216DAVISVP2,2013-06-13 03:26:00,
2013-06-12 23:40:00,66.7,64.3,29.63,West,273,21.0,41.0,92,0.15,,,0.29,WUHU216DAVISVP2,2013-06-13 03:40:00,
2013-06-12 23:50:00,66.6,64.8,29.61,NNW,343,13.0,41.0,94,0.18,,,0.33,WUHU216DAVISVP2,2013-06-13 03:50:00,
2013-06-12 23:55:00,66.7,64.6,29.61,NW,323,7.0,26.0,93,0.18,,,0.33,WUHU216DAVISVP2,2013-06-13 03:55:00,